Weather History for Ely, NV

Change the Weather History Date:

Friday, July 26, 2013

  Actual Average Record
Temperature  
Mean Temperature 75 °F 69 °F  
Max Temperature 93 °F 88 °F 96 °F (1943)
Min Temperature 57 °F 49 °F 40 °F (1990)
Degree Days  
Heating Degree Days 0 0  
Month to date heating degree days 0 20  
Since 1 June heating degree days 95 195  
Since 1 July heating degree days 0 20  
Cooling Degree Days 10 4  
Month to date cooling degree days 195 90  
Year to date cooling degree days 252 114  
Since 1 June cooling degree days 252 113  
Growing Degree Days 25 (Base 50)    
Moisture  
Dew Point 41 °F    
Average Humidity 36    
Maximum Humidity 55    
Minimum Humidity 16    
Precipitation  
Precipitation T in 0.03 in 0.68 in (1951)
Month to date precipitation 0.11 0.50  
Year to date precipitation 3.22 5.60  
Snow  
Snow 0.00 in 0.00 in 0.00 in (1893)
Month to date snowfall 0.0 0.0  
Since 1 June snowfall 0.0 0.1  
Since 1 July snowfall 0.0 0.0  
Snow Depth 0.00 in    
Sea Level Pressure  
Sea Level Pressure 30.03 in    
Wind  
Wind Speed 8 mph (South)    
Max Wind Speed 24 mph    
Max Gust Speed 44 mph    
Visibility 10 miles    
Events Rain , Thunderstorm    
T = Trace of Precipitation, MM = Missing Value Source: NWS Daily Summary

Daily Weather History Graph

Daily Weather History Graph

Search for Another Location

Airport:

Trip Planner

Search our weather history database for the weather conditions in past years. The results will help you decide how hot, cold, wet, or windy it might be!

Date:

Astronomy

Jul. 26, 2013 Rise Set
Actual Time 5:34 AM PDT 7:56 PM PDT
Civil Twilight 5:03 AM PDT 8:27 PM PDT
Nautical Twilight 4:26 AM PDT 9:04 PM PDT
Astronomical Twilight 3:44 AM PDT 9:45 PM PDT
Moon 10:15 PM PDT (7/26) 10:13 AM PDT (7/26)
Length of Visible Light 15h 23m
Length of Day
14h 22m
Waning Gibbous, 79% of the Moon is Illuminated
Jul 26
Waning Gibbous
Jul 29
Last Quarter
Aug 6
New
Aug 14
First Quarter
Aug 20
Full

Hourly Weather History & Observations

Time (PDT) Temp. Dew Point Humidity Pressure Visibility Wind Dir Wind Speed Gust Speed Precip Events Conditions
12:53 AM 64.0 °F 37.0 °F 37% 29.95 in 10.0 mi South 11.5 mph - N/A   Clear
1:53 AM 63.0 °F 37.9 °F 40% 29.96 in 10.0 mi South 6.9 mph - N/A   Clear
2:53 AM 64.0 °F 36.0 °F 35% 29.96 in 10.0 mi WSW 3.5 mph - N/A   Clear
3:53 AM 63.0 °F 37.9 °F 40% 29.97 in 10.0 mi South 8.1 mph - N/A   Clear
4:53 AM 60.1 °F 41.0 °F 49% 30.00 in 10.0 mi SSE 6.9 mph - N/A   Clear
5:53 AM 57.0 °F 41.0 °F 55% 30.01 in 10.0 mi South 5.8 mph - N/A   Clear
6:53 AM 62.1 °F 43.0 °F 50% 30.01 in 10.0 mi SSE 6.9 mph - N/A   Clear
7:53 AM 71.1 °F 43.0 °F 36% 30.01 in 10.0 mi South 5.8 mph - N/A   Clear
8:53 AM 77.0 °F 42.1 °F 29% 30.01 in 10.0 mi East 3.5 mph - N/A   Clear
9:53 AM 80.1 °F 41.0 °F 25% 30.00 in 10.0 mi Variable 4.6 mph - N/A   Clear
10:53 AM 87.1 °F 37.9 °F 18% 29.99 in 10.0 mi North 5.8 mph - N/A   Clear
11:53 AM 89.1 °F 37.9 °F 16% 29.97 in 10.0 mi Variable 4.6 mph - N/A   Clear
12:53 PM 87.1 °F 37.0 °F 17% 29.95 in 10.0 mi NNW 10.4 mph 19.6 mph N/A   Mostly Cloudy
2:21 PM 84.2 °F 37.4 °F 19% 30.30 in 10.0 mi West 12.7 mph 18.4 mph N/A Thunderstorm Overcast
2:40 PM 78.8 °F 48.2 °F 34% 30.31 in 10.0 mi SE 8.1 mph 27.6 mph 0.00 in Rain Light Rain
2:53 PM 84.9 °F 43.0 °F 23% 29.96 in 10.0 mi East 13.8 mph 18.4 mph 0.00 in   Scattered Clouds
3:10 PM 87.8 °F 41.0 °F 19% 30.28 in 10.0 mi East 24.2 mph 29.9 mph N/A   Clear
3:53 PM 86.0 °F 37.9 °F 18% 29.93 in 10.0 mi ESE 9.2 mph - N/A   Scattered Clouds
4:23 PM 82.4 °F 42.8 °F 25% 30.26 in 10.0 mi SW 9.2 mph - N/A   Mostly Cloudy
4:53 PM 82.9 °F 41.0 °F 23% 29.95 in 10.0 mi West 8.1 mph - N/A   Mostly Cloudy
5:53 PM 82.9 °F 37.9 °F 20% 29.95 in 10.0 mi North 12.7 mph - N/A   Scattered Clouds
6:13 PM 82.4 °F 39.2 °F 21% 30.25 in 10.0 mi North 10.4 mph - N/A   Partly Cloudy
6:53 PM 81.0 °F 39.9 °F 23% 29.94 in 10.0 mi NNW 8.1 mph - N/A   Clear
7:53 PM 77.0 °F 42.1 °F 29% 29.95 in 10.0 mi Calm Calm - N/A   Mostly Cloudy
8:53 PM 77.0 °F 43.0 °F 30% 29.95 in 10.0 mi SSE 6.9 mph - 0.00 in   Mostly Cloudy
9:29 PM 75.2 °F 42.8 °F 31% 30.30 in 10.0 mi SW 17.3 mph 21.9 mph N/A   Mostly Cloudy
9:53 PM 73.9 °F 44.1 °F 34% 29.97 in 10.0 mi SW 10.4 mph - N/A   Partly Cloudy
10:53 PM 73.0 °F 45.0 °F 37% 29.96 in 10.0 mi NE 4.6 mph - N/A   Overcast
11:53 PM 69.1 °F 50.0 °F 51% 29.98 in 10.0 mi South 12.7 mph - 0.00 in   Overcast